******** Week 362 almanac for PRN-1 ******** ID: 1 Health: 0 Eccentricity: 0.001621246338 Time of Applicability(s): 147456 Orbital Inclination(rad): 0.9581711386 Rate of Right Ascen(r/s): -7.737465153e-09 SQRT(A) (m 1/2): 5153.578125 Right Ascen at Week(rad): 2.886859715 Argument of Perigee(rad): 0.1085407505 Mean Anom(rad): 1.130280563 Af0(s): 0.000250219873 Af1(s/s): -7.275958e-12 week: 362 ******** Week 362 almanac for PRN-2 ******** ID: 2 Health: 0 Eccentricity: 0.01687669754 Time of Applicability(s): 147456 Orbital Inclination(rad): 0.9633423316 Rate of Right Ascen(r/s): -7.657461821e-09 SQRT(A) (m 1/2): 5153.543457 Right Ascen at Week(rad): 2.724461109 Argument of Perigee(rad): -0.8036111895 Mean Anom(rad): 2.610916945 Af0(s): 4.672780762e-05 Af1(s/s): 7.275958e-12 week: 362 ******** Week 362 almanac for PRN-3 ******** ID: 3 Health: 0 Eccentricity: 0.006547451019 Time of Applicability(s): 147456 Orbital Inclination(rad): 0.9935126178 Rate of Right Ascen(r/s): -7.794610391e-09 SQRT(A) (m 1/2): 5153.57373 Right Ascen at Week(rad): -2.4092333 Argument of Perigee(rad): 1.203565971 Mean Anom(rad): -0.9799171143 Af0(s): 0.0004250723144 Af1(s/s): -1.455192e-11 week: 362 ******** Week 362 almanac for PRN-4 ******** ID: 4 Health: 0 Eccentricity: 0.003734111786 Time of Applicability(s): 147456 Orbital Inclination(rad): 0.970448977 Rate of Right Ascen(r/s): -8.126052768e-09 SQRT(A) (m 1/2): 5153.674316 Right Ascen at Week(rad): -1.338672377 Argument of Perigee(rad): -2.873716391 Mean Anom(rad): 1.989030422 Af0(s): 3.843739014e-05 Af1(s/s): 3.637979e-12 week: 362 ******** Week 362 almanac for PRN-5 ******** ID: 5 Health: 0 Eccentricity: 0.00542640686 Time of Applicability(s): 147456 Orbital Inclination(rad): 0.9800842938 Rate of Right Ascen(r/s): -7.920329913e-09 SQRT(A) (m 1/2): 5153.664062 Right Ascen at Week(rad): -2.469149931 Argument of Perigee(rad): 1.417815824 Mean Anom(rad): 2.658667714 Af0(s): -0.0001823891846 Af1(s/s): 0 week: 362 ******** Week 362 almanac for PRN-6 ******** ID: 6 Health: 0 Eccentricity: 0.003842353821 Time of Applicability(s): 147456 Orbital Inclination(rad): 0.9870291522 Rate of Right Ascen(r/s): -7.463168014e-09 SQRT(A) (m 1/2): 5153.605957 Right Ascen at Week(rad): 2.837794051 Argument of Perigee(rad): -0.5549276619 Mean Anom(rad): 0.3279187286 Af0(s): -0.0004838589111 Af1(s/s): 0 week: 362 ******** Week 362 almanac for PRN-7 ******** ID: 7 Health: 0 Eccentricity: 0.02057170868 Time of Applicability(s): 147456 Orbital Inclination(rad): 0.9513341383 Rate of Right Ascen(r/s): -7.771752296e-09 SQRT(A) (m 1/2): 5153.576172 Right Ascen at Week(rad): -0.3299942466 Argument of Perigee(rad): -1.987880311 Mean Anom(rad): -0.5264479005 Af0(s): -0.0001273709595 Af1(s/s): -3.637979e-12 week: 362 ******** Week 362 almanac for PRN-8 ******** ID: 8 Health: 0 Eccentricity: 0.01159095764 Time of Applicability(s): 147456 Orbital Inclination(rad): 0.943005102 Rate of Right Ascen(r/s): -8.331775623e-09 SQRT(A) (m 1/2): 5153.62793 Right Ascen at Week(rad): 1.716896762 Argument of Perigee(rad): 0.5287717166 Mean Anom(rad): 2.294854359 Af0(s): 0.0003775908325 Af1(s/s): -7.275958e-12 week: 362 ******** Week 362 almanac for PRN-9 ******** ID: 9 Health: 0 Eccentricity: 0.00334405899 Time of Applicability(s): 147456 Orbital Inclination(rad): 0.9646126595 Rate of Right Ascen(r/s): -8.217485148e-09 SQRT(A) (m 1/2): 5153.714844 Right Ascen at Week(rad): -1.403037777 Argument of Perigee(rad): 2.065982254 Mean Anom(rad): 2.886355629 Af0(s): 0.0006052004761 Af1(s/s): -3.637979e-12 week: 362 ******** Week 362 almanac for PRN-10 ******** ID: 10 Health: 0 Eccentricity: 0.01092624664 Time of Applicability(s): 147456 Orbital Inclination(rad): 0.9930452331 Rate of Right Ascen(r/s): -7.794610391e-09 SQRT(A) (m 1/2): 5153.604004 Right Ascen at Week(rad): -2.411743995 Argument of Perigee(rad): -2.255839715 Mean Anom(rad): -1.971451811 Af0(s): -0.0004665244019 Af1(s/s): 0 week: 362 ******** Week 362 almanac for PRN-11 ******** ID: 11 Health: 0 Eccentricity: 0.002208709717 Time of Applicability(s): 147456 Orbital Inclination(rad): 0.963893606 Rate of Right Ascen(r/s): -7.680319916e-09 SQRT(A) (m 1/2): 5153.538086 Right Ascen at Week(rad): 2.856272977 Argument of Perigee(rad): -2.308174076 Mean Anom(rad): 1.436137082 Af0(s): -0.0003203115845 Af1(s/s): 1.455192e-11 week: 362 ******** Week 362 almanac for PRN-12 ******** ID: 12 Health: 0 Eccentricity: 0.008999824524 Time of Applicability(s): 147456 Orbital Inclination(rad): 0.9591778135 Rate of Right Ascen(r/s): -8.023191341e-09 SQRT(A) (m 1/2): 5153.708984 Right Ascen at Week(rad): 0.7875055148 Argument of Perigee(rad): 1.564958137 Mean Anom(rad): -1.200624592 Af0(s): -0.0004800905395 Af1(s/s): 0 week: 362 ******** Week 362 almanac for PRN-13 ******** ID: 13 Health: 0 Eccentricity: 0.0100274086 Time of Applicability(s): 147456 Orbital Inclination(rad): 0.976099539 Rate of Right Ascen(r/s): -8.034620388e-09 SQRT(A) (m 1/2): 5153.621582 Right Ascen at Week(rad): -1.227687594 Argument of Perigee(rad): 0.9957902202 Mean Anom(rad): 2.053725013 Af0(s): 0.0005396308105 Af1(s/s): 0 week: 362 ******** Week 362 almanac for PRN-14 ******** ID: 14 Health: 0 Eccentricity: 0.00679397583 Time of Applicability(s): 147456 Orbital Inclination(rad): 0.9425616857 Rate of Right Ascen(r/s): -8.160339911e-09 SQRT(A) (m 1/2): 5153.595215 Right Ascen at Week(rad): 0.7326428567 Argument of Perigee(rad): -2.744962747 Mean Anom(rad): -1.347447077 Af0(s): 0.0005840975952 Af1(s/s): 0 week: 362 ******** Week 362 almanac for PRN-15 ******** ID: 15 Health: 0 Eccentricity: 0.0166220665 Time of Applicability(s): 147456 Orbital Inclination(rad): 0.9425077566 Rate of Right Ascen(r/s): -8.503211336e-09 SQRT(A) (m 1/2): 5153.640137 Right Ascen at Week(rad): -1.547481018 Argument of Perigee(rad): 1.504505213 Mean Anom(rad): 1.298741689 Af0(s): 0.000312021167 Af1(s/s): 3.637979e-12 week: 362 ******** Week 362 almanac for PRN-16 ******** ID: 16 Health: 0 Eccentricity: 0.01503324509 Time of Applicability(s): 147456 Orbital Inclination(rad): 0.9582849887 Rate of Right Ascen(r/s): -8.068907531e-09 SQRT(A) (m 1/2): 5153.59668 Right Ascen at Week(rad): 0.8044575754 Argument of Perigee(rad): 0.9314581519 Mean Anom(rad): -2.955282149 Af0(s): 0.0001793744873 Af1(s/s): 7.275958e-12 week: 362 ******** Week 362 almanac for PRN-17 ******** ID: 17 Health: 0 Eccentricity: 0.01263713837 Time of Applicability(s): 147456 Orbital Inclination(rad): 0.9586924524 Rate of Right Ascen(r/s): -8.126052768e-09 SQRT(A) (m 1/2): 5153.539551 Right Ascen at Week(rad): 1.821860971 Argument of Perigee(rad): -1.119356193 Mean Anom(rad): 2.235438445 Af0(s): -7.009171143e-05 Af1(s/s): -1.091394e-11 week: 362 ******** Week 362 almanac for PRN-18 ******** ID: 18 Health: 0 Eccentricity: 0.005777359009 Time of Applicability(s): 147456 Orbital Inclination(rad): 0.9719829578 Rate of Right Ascen(r/s): -7.611745631e-09 SQRT(A) (m 1/2): 5153.594727 Right Ascen at Week(rad): 2.832566308 Argument of Perigee(rad): -2.866775652 Mean Anom(rad): 0.2502403533 Af0(s): -0.0003165432129 Af1(s/s): 1.091394e-11 week: 362 ******** Week 362 almanac for PRN-19 ******** ID: 19 Health: 0 Eccentricity: 0.0111823082 Time of Applicability(s): 147456 Orbital Inclination(rad): 0.957871533 Rate of Right Ascen(r/s): -8.114623721e-09 SQRT(A) (m 1/2): 5153.663574 Right Ascen at Week(rad): 1.865759187 Argument of Perigee(rad): 2.937339892 Mean Anom(rad): -2.247860843 Af0(s): 0.0005486749023 Af1(s/s): 0 week: 362 ******** Week 362 almanac for PRN-20 ******** ID: 20 Health: 0 Eccentricity: 0.00226688385 Time of Applicability(s): 147456 Orbital Inclination(rad): 0.9600227013 Rate of Right Ascen(r/s): -8.274630386e-09 SQRT(A) (m 1/2): 5153.700195 Right Ascen at Week(rad): -1.397490953 Argument of Perigee(rad): -1.988778379 Mean Anom(rad): -1.225020355 Af0(s): 4.371311035e-05 Af1(s/s): 2.182787e-11 week: 362 ******** Week 362 almanac for PRN-21 ******** ID: 21 Health: 0 Eccentricity: 0.0007724761963 Time of Applicability(s): 147456 Orbital Inclination(rad): 0.9629228838 Rate of Right Ascen(r/s): -8.137481816e-09 SQRT(A) (m 1/2): 5153.71875 Right Ascen at Week(rad): -2.403405222 Argument of Perigee(rad): -0.2867177124 Mean Anom(rad): -1.529427158 Af0(s): 0.0003233262817 Af1(s/s): 3.637979e-12 week: 362 ******** Week 362 almanac for PRN-22 ******** ID: 22 Health: 0 Eccentricity: 0.01206254959 Time of Applicability(s): 147456 Orbital Inclination(rad): 0.9577337144 Rate of Right Ascen(r/s): -8.068907531e-09 SQRT(A) (m 1/2): 5153.566406 Right Ascen at Week(rad): 0.8078124094 Argument of Perigee(rad): -0.9935506682 Mean Anom(rad): 2.883176064 Af0(s): -2.637860107e-05 Af1(s/s): 7.275958e-12 week: 362 ******** Week 362 almanac for PRN-23 ******** ID: 23 Health: 0 Eccentricity: 0.006049156189 Time of Applicability(s): 147456 Orbital Inclination(rad): 0.9880478113 Rate of Right Ascen(r/s): -7.817468486e-09 SQRT(A) (m 1/2): 5153.65918 Right Ascen at Week(rad): -2.443890929 Argument of Perigee(rad): -2.739954839 Mean Anom(rad): -0.8917270757 Af0(s): 0.0004936566772 Af1(s/s): 3.637979e-12 week: 362 ******** Week 362 almanac for PRN-24 ******** ID: 24 Health: 0 Eccentricity: 0.01792430878 Time of Applicability(s): 147456 Orbital Inclination(rad): 0.9352992454 Rate of Right Ascen(r/s): -7.966046103e-09 SQRT(A) (m 1/2): 5153.601074 Right Ascen at Week(rad): -0.4387065213 Argument of Perigee(rad): 1.137214186 Mean Anom(rad): 0.4553469921 Af0(s): -6.255496826e-05 Af1(s/s): 1.818989e-11 week: 362 ******** Week 362 almanac for PRN-25 ******** ID: 25 Health: 0 Eccentricity: 0.01292276382 Time of Applicability(s): 147456 Orbital Inclination(rad): 0.9476130364 Rate of Right Ascen(r/s): -8.091765626e-09 SQRT(A) (m 1/2): 5153.661621 Right Ascen at Week(rad): 0.6935240995 Argument of Perigee(rad): 1.159214976 Mean Anom(rad): -1.32754465 Af0(s): 0.0003451828369 Af1(s/s): -3.637979e-12 week: 362 ******** Week 362 almanac for PRN-26 ******** ID: 26 Health: 0 Eccentricity: 0.01100683212 Time of Applicability(s): 147456 Orbital Inclination(rad): 0.9284322845 Rate of Right Ascen(r/s): -8.286059433e-09 SQRT(A) (m 1/2): 5153.664551 Right Ascen at Week(rad): 0.6187346714 Argument of Perigee(rad): 0.7113775986 Mean Anom(rad): -2.147877204 Af0(s): -0.0002698154053 Af1(s/s): -3.637979e-12 week: 362 ******** Week 362 almanac for PRN-27 ******** ID: 27 Health: 0 Eccentricity: 0.01437902451 Time of Applicability(s): 147456 Orbital Inclination(rad): 0.9521011287 Rate of Right Ascen(r/s): -8.217485148e-09 SQRT(A) (m 1/2): 5153.605469 Right Ascen at Week(rad): 1.749060549 Argument of Perigee(rad): 0.8854331106 Mean Anom(rad): 2.398332149 Af0(s): -5.577189941e-05 Af1(s/s): -1.091394e-11 week: 362 ******** Week 362 almanac for PRN-28 ******** ID: 28 Health: 0 Eccentricity: 0.0004286766052 Time of Applicability(s): 147456 Orbital Inclination(rad): 0.9622637514 Rate of Right Ascen(r/s): -7.691748963e-09 SQRT(A) (m 1/2): 5153.762207 Right Ascen at Week(rad): -0.3555768217 Argument of Perigee(rad): -0.08560743811 Mean Anom(rad): -0.122125993 Af0(s): -0.0004559729614 Af1(s/s): 7.275958e-12 week: 362 ******** Week 362 almanac for PRN-29 ******** ID: 29 Health: 0 Eccentricity: 0.003405570984 Time of Applicability(s): 147456 Orbital Inclination(rad): 0.9613529503 Rate of Right Ascen(r/s): -8.080336578e-09 SQRT(A) (m 1/2): 5153.692871 Right Ascen at Week(rad): 1.83863177 Argument of Perigee(rad): 2.743384575 Mean Anom(rad): 2.255944952 Af0(s): -0.0002826278686 Af1(s/s): 7.275958e-12 week: 362 ******** Week 362 almanac for PRN-30 ******** ID: 30 Health: 0 Eccentricity: 0.00811624527 Time of Applicability(s): 147456 Orbital Inclination(rad): 0.9365995338 Rate of Right Ascen(r/s): -7.931758961e-09 SQRT(A) (m 1/2): 5153.705566 Right Ascen at Week(rad): -0.3391917647 Argument of Perigee(rad): -2.309966467 Mean Anom(rad): -0.7125134784 Af0(s): 0.0001220952393 Af1(s/s): 1.455192e-11 week: 362 ******** Week 362 almanac for PRN-31 ******** ID: 31 Health: 0 Eccentricity: 0.01084041595 Time of Applicability(s): 147456 Orbital Inclination(rad): 0.955103177 Rate of Right Ascen(r/s): -7.726036106e-09 SQRT(A) (m 1/2): 5153.533691 Right Ascen at Week(rad): -0.3057250676 Argument of Perigee(rad): 0.9379318804 Mean Anom(rad): -1.617663261 Af0(s): -0.0001273709595 Af1(s/s): 3.637979e-12 week: 362 ******** Week 362 almanac for PRN-32 ******** ID: 32 Health: 0 Eccentricity: 0.009376525879 Time of Applicability(s): 147456 Orbital Inclination(rad): 0.9676566526 Rate of Right Ascen(r/s): -8.160339911e-09 SQRT(A) (m 1/2): 5153.684082 Right Ascen at Week(rad): -1.385983101 Argument of Perigee(rad): -1.992976228 Mean Anom(rad): 2.966411 Af0(s): -3.617636719e-05 Af1(s/s): 1.818989e-11 week: 362